Regional Weather Roundup
Issued by NWS

Home | Current Version | Previous Version | Text Only | Print | Product List | Glossary On
Versions: 1 2 3 4 5 6 7 8 9 10 11 12 13 14 15 16 17 18 19 20 21 22 23 24 25 26 27 28 29 30 31 32 33 34 35 36 37 38 39 40 41 42 43 44 45 46 47 48 49 50
000
ASMX46 KSGX 302203
RWRMX

MEXICAN WEATHER ROUNDUP
NATIONAL WEATHER SERVICE SAN DIEGO CA
200 PM PST FRI JAN 30 2015

BAJA CALIFORNIA

CITY           SKY/WX    TMP DP  RH WIND       PRES   REMARKS
ENSENADA NW      N/A     64  32  29 W2        29.85F
LA PAZ         RAIN      64  59  82 SE6       29.95
LORETO         PTSUNNY   68  63  83 NE6       29.86F
MEXICALI       PTSUNNY   68  52  56 NW5       29.84
S.J. DEL CABO  CLOUDY    73  59  60 N6        29.93F
TIJUANA        CLOUDY    63  48  59 N7        29.89F

NORTHWESTERN MEXICO

CITY           SKY/WX    TMP DP  RH WIND       PRES   REMARKS
CHIHUAHUA      CLOUDY    63  37  39 SE12      30.05
CULIACAN       CLOUDY    75  70  83 CALM      29.91
GUAYMAS        CLOUDY    68  63  83 S7        29.84
HERMOSILLO     DRIZZLE   66  64  94 S9        29.90
JUAREZ         LGT RAIN  46  43  87 NE12      30.02
LOS MOCHIS     CLOUDY    68  57  68 W9        29.94F
OBREGON        CLOUDY    64  63  94 E10       29.90

NORTHEASTERN MEXICO

CITY           SKY/WX    TMP DP  RH WIND       PRES   REMARKS
MATAMOROS      PTSUNNY   72  64  78 NE12      30.24
MONCLOVA       CLOUDY    55  50  82 NE7       30.20F FOG
MONTERREY      CLOUDY    64  57  77 E12G23    30.14F
NUEVO LAREDO   PTSUNNY   72  50  46 SE8       30.21
PIEDRAS NEGRAS PTSUNNY   63  43  48 CALM      30.24F
REYNOSA        CLOUDY    68  55  64 NE17      30.18
SALTILLO       CLOUDY    57  48  72 N17       30.21F
TORREON        CLOUDY    70  45  40 NE15      30.03F
VICTORIA       CLOUDY    72  57  60 E12       30.17

WESTERN MEXICO

CITY           SKY/WX    TMP DP  RH WIND       PRES   REMARKS
AGUASCALIENTES MOSUNNY   72  19  14 W5        30.19
COLIMA         PTSUNNY   79  66  65 SW12      29.97F
DURANGO        PTSUNNY   72  32  23 SE9       30.07F
GUADALAJARA    MOSUNNY   75  32  20 E14       30.09
MANZANILLO     MOSUNNY   82  73  74 SW9       29.84F
MAZATLAN       PTSUNNY   77  66  69 S9        29.85F
PTO. VALLARTA  PTSUNNY   81  73  78 S7        29.85F
TEPIC          CLOUDY    73  64  73 NW7       29.96F
URUAPAN        PTSUNNY   73  55  53 S12       30.11F
ZACATECAS      PTSUNNY   66  28  24 SE23      30.20F

CENTRAL MEXICO

CITY           SKY/WX    TMP DP  RH WIND       PRES   REMARKS
CUERNAVACA     SUNNY     79  25  13 SE5       30.07F
LEON           PTSUNNY   70  30  23 E12       30.24F
MEXICO CITY    MOSUNNY   68  25  19 E8        30.22F
MORELIA        MOSUNNY   73  39  29 N12       30.13
POZA RICA      CLOUDY    72  57  60 E12       30.17F
PUEBLA         MOSUNNY   70  18  13 SE9       30.23F
QUERETARO      PTSUNNY   68  28  22 E12       30.22F
S. LUIS POTOSI CLOUDY    61  34  36 SE21      30.23F
TAMPICO        CLOUDY    64  63  94 W6        30.18F
TOLUCA         MOSUNNY   68  21  17 S16       30.26F
VERACRUZ       PTSUNNY   70  61  73 E9        30.14F

SOUTHERN MEXICO

CITY           SKY/WX    TMP DP  RH WIND       PRES   REMARKS
ACAPULCO       MOSUNNY   84  72  65 S7        29.87F
B. DE HUATULCO MOSUNNY   90  68  48 CALM      29.88
MINATITLAN     MOSUNNY   75  68  78 N23       30.07
OAXACA         MOSUNNY   70  37  30 S6        30.20F
PTO. ESCONDIDO MOSUNNY   84  72  65 W8        29.99F
TAPACHULA      SUNNY     84  70  61 W12       29.84F
TUX. GUTIERREZ MOSUNNY   79  55  44 NW21      30.02F
VILLAHERMOSA   PTSUNNY   75  64  69 E12       30.12F
ZIHUATANEJO    MOSUNNY   86  73  66 SW8       29.87F

YUCATAN PENINSULA

CITY           SKY/WX    TMP DP  RH WIND       PRES   REMARKS
CAMPECHE       MOSUNNY   75  64  69 NW20      30.07F
CANCUN         MOSUNNY   77  63  61 NE7       30.11S
CHETUMAL       PTSUNNY   81  73  78 N6        30.06F
C. DEL CARMEN  MOSUNNY   75  59  57 N6        30.11
COZUMEL        MOSUNNY   73  63  68 NE12      30.10F
MERIDA         MOSUNNY   79  59  50 NE12      30.10F

$$




USA.gov is the U.S. government's official web portal to all federal, state and local government web resources and services.